DECAYED

STARLINK-3876, 52354 (Decayed)

Orbit data source: Space-Track

STARLINK-3876, 52354 was a payload satellite owned by SpaceX/Seattle (US) in LEO that was launched on Fri, 29 Apr 2022 UTC via an FALCON 9 launch vehicle from the Air Force Eastern Test Range (AFETR). Payload-class satellites include a variety of spacecraft equipped with specific instruments for various scientific and technological missions. These include communications satellites like Starlink; space stations such as the ISS; scientific satellites like the Hubble; Earth observation satellites from companies like Planet Labs, Umbra, and HawkEye 360; GPS; miniature CubeSats for education and research; and military/defense satellites.

Not visible in the next 10 days
Identifier
52354, 2022-045Z
Orbit
Decayed
Country
Flag of USUS
Related business
Manufacturer
SpaceX/Seattle
Mission
Decayed Commercial Communications
Bus & Motor
STARLINK, Unknown motor
Mass
297 kg wet, ~275 kg dry
Launch date (UTC)
2022-04-29 (4 years ago)
Launch vehicle
FALCON 9
Launch site
Air Force Eastern Test Range (AFETR)
Object type
Payload
Rocket body
Debris
Shape & HBR
Box + 1 Pan, 10.1 m
Radar Cross Section
11.087 m², Large (>1 m²)

Expand to show TLE details & history
Last TLE update: 9 months ago

TLE from 9 months ago
0 STARLINK-3876
1 52354U 22045Z   25215.99458198  .05897597  12230-4  63040-3 0  9998
2 52354  53.2076  64.4506 0011429 262.2822 253.6438 16.36491864183360
Epoch: 2025-08-03T23:52Z
TLE epoch observation values (Epoch: 2025-08-03T23:52:11.883Z)
Latitude
19.2029°
Longitude
-81.41732°
Altitude
177.707 km
Speed
7.801 km/s
True Right ascension
15h 17m 45s
True Declination
19° 05' 13"
Sunlit
Object was in daylight at epoch
Visualization orbit readout
Latitude
Unknown
Longitude
Unknown
Altitude
Unknown
Speed
Unknown
Apparent Right ascension
Unknown
Apparent Declination
Unknown
Sunlit
N/A
Visualization observer readout
Local Sidereal Time
12:10:02
Azimuth
Unknown
Elevation
Unknown
Doppler factor
Unknown
Orbital elements
Apogee altitude
182.901 km
Perigee altitude
167.921 km
Semi-major axis
6,553.548 km
Eccentricity
0.00114
Inclination
53.2076°
RAAN
64.4506°
Arg. of periapsis
262.2822°
True anomaly
253.51818°
Mean anomaly
253.6438°
Eccentric anomaly
253.58099°
Mean motion
4.09099 °/min
Orbital period
88 mins
BSTAR
0.0006304
Loading maneuver chart data...
Computing Atmospheric mass density...
Loading historical data...
Loading historical data...
Loading historical data...
Loading historical data...
Loading historical data...
Loading historical data...
Loading historical data...

Documentation

Showing up to 5 results
|